Location: Unspecified
(26.1283°N, 0.0000°E)
Time: 04:18:30
(UTC+00:00)

MOS 1 Rocket - Visible Passes

Search period start: 04 April 2026 00:00
Search period end: 14 April 2026 00:00
Orbit: 610 x 812 km, 97.4° (Epoch: 29 March)

Date Brightness Start Highest point End Pass type
(mag) Time Alt. Az. Time Alt. Az. Time Alt. Az.
4 Apr 6.9 04:28:27 10° E 04:29:27 10° E 04:30:26 10° ESE visible
5 Apr 5.4 05:10:21 10° NNE 05:15:09 35° E 05:19:46 10° SSE visible
7 Apr 5.7 05:03:25 10° NE 05:07:58 30° E 05:12:20 10° SSE visible
9 Apr 6.0 04:56:32 10° NE 05:00:46 25° E 05:04:49 10° SSE visible
11 Apr 6.2 04:49:42 10° NE 04:53:32 21° E 04:57:13 10° SE visible
13 Apr 6.3 04:42:58 10° NE 04:46:18 18° E 04:49:30 10° SE visible
